Starlink 2408

operational
NORAD ID: 47823 Int'l Des: 2021-018 Owner: SPXS Country: US Constellation: starlink
LEOCIRCULARSTARLINK_TYPE

Starlink 2408について

説明を読み込み中...

リアルタイム位置

3D地球を読み込み中...

次回通過

高度履歴

Altitude vs Time

uPlot chart will show altitude changes over time

軌道要素

1 47823U 21018AN 25258.44449961 .00000635 00000-0 61515-4 0 9995
2 47823 53.0544 318.3167 0001268 91.1531 268.9603 15.06396113250188
Epoch: Sep 15, 2025 • Age: 14 hours

現在のステータス

高度 547.8 km
速度 7.59 km/s
衛星直下点 2.41°N, 52.98°W
打ち上げ日 Mar 11, 2021
運用期間 4.5 years
タイプ internet

技術仕様

分類 Payload
質量 260.00 kg
乾燥質量 248.00 kg
総質量 260.00 kg
長さ 0.20 m
直径 2.80 m
スパン 9.00 m
形状 Box + pan
製造者 SPXS
バスタイプ Starlink
フェーズステータス In Orbit
所有者/国 SPXS/US

大規模コンステレーション

Loading constellations...